STARLINK-11627, 63107

Orbit data source: Space-Track

STARLINK-11627, 63107 is a payload satellite owned by SpaceX/Seattle (US) in LEO that was launched on Thu, 27 Feb 2025 UTC via an FALCON 9 launch vehicle from the Air Force Eastern Test Range (AFETR). Payload-class satellites include a variety of spacecraft equipped with specific instruments for various scientific and technological missions. These include communications satellites like Starlink; space stations such as the ISS; scientific satellites like the Hubble; Earth observation satellites from companies like Planet Labs, Umbra, and HawkEye 360; GPS; miniature CubeSats for education and research; and military/defense satellites.

Loading next visibility...
Identifier
63107, 2025-039D
Orbit
LEO
Country
Flag of USUS
Related business
Manufacturer
SpaceX/Seattle
Mission
Operational Commercial Communications
Bus & Motor
STARLINK V2MD, Unknown motor
Mass
960 kg wet, ~910 kg dry
Launch date (UTC)
2025-02-27 (1 year ago)
Launch vehicle
FALCON 9
Launch site
Air Force Eastern Test Range (AFETR)
Object type
Payload
Rocket body
Debris
Shape & HBR
Box + 2 Pan, 18.1 m
Radar Cross Section
36.964 m², Large (>1 m²)

Expand to show TLE details & history
Last TLE update: 23 hours ago

TLE from 23 hours ago
0 STARLINK-11627
1 63107U 25039D   26207.15632651  .00211647  00000-0  16088-2 0  9998
2 63107  42.9982 122.1313 0001259 269.2198  90.8525 15.70876947 81394
Epoch: 2026-07-26T03:45Z
TLE epoch observation values (Epoch: 2026-07-26T03:45:06.610Z)
Latitude
-0.00004°
Longitude
121.99541°
Altitude
356.173 km
Speed
7.697 km/s
True Right ascension
08h 08m 31s
True Declination
0° 00' 00"
Sunlit
Object was in daylight at epoch
Visualization orbit readout
Latitude
Unknown
Longitude
Unknown
Altitude
Unknown
Speed
Unknown
Apparent Right ascension
Unknown
Apparent Declination
Unknown
Sunlit
N/A
Visualization observer readout
Local Sidereal Time
15:54:34
Azimuth
Unknown
Elevation
Unknown
Doppler factor
Unknown
Orbital elements
Apogee altitude
359.22 km
Perigee altitude
357.523 km
Semi-major axis
6,736.508 km
Eccentricity
0.00013
Inclination
42.9982°
RAAN
122.1313°
Arg. of periapsis
269.2198°
True anomaly
90.86693°
Mean anomaly
90.8525°
Eccentric anomaly
90.85971°
Mean motion
3.92546 °/min
Orbital period
91.71 mins
BSTAR
0.0016088
Loading maneuver chart data...
Computing Atmospheric mass density...
Loading historical data...
Loading historical data...
Loading historical data...
Loading historical data...
Loading historical data...
Loading historical data...
Loading historical data...

Documentation

Showing up to 5 results
|